Flag for Belarus Weather past 2 weeks in Minsk, Belarus

Now
41 °F

Partly sunny.


Feels Like: 35 °F
Forecast: 33 / 42 °F
Wind: 10 mph from Northwest

Location: Loshitsa / Minsk International 1

Current Time: Apr 18, 2015 at 10:48:22 PM

Latest Report: Apr 18, 2015 at 8:30 PM


Visibility: N/A

Pressure: 29.80 "Hg

Humidity: 66%

Dew point: 30 °F

Location of MinskLocation

Historic Weather in Minsk — Graph

°F

Minsk temperature yesterday

Maximum temperature yesterday: 45 °F (at 11:00 AM)
Minimum temperature yesterday: 36 °F (at 7:00 AM)
Average temperature yesterday: 42 °F

Past Weeks' High & Low Weather Summary

 TemperatureHumidityPressure
High66 °F (Apr 11, 3:00 PM)100% (Apr 4, 7:30 AM)30.27 "Hg (Apr 4, 7:30 AM)
Low30 °F (Apr 7, 7:00 AM)26% (Apr 9, 4:00 PM)29.36 "Hg (Apr 16, 7:00 AM)
Average45 °F63%29.91 "Hg
* Reported Apr 3 8:00 PM — Apr 18 8:30 PM, Minsk, Weather by CustomWeather, © 2015

Note: Actual official high and low records may vary slightly from our data, if they occured in-between our weather recording intervals... More about our weather records

Advertising

Minsk weather history for previous 24 hours

 ConditionsComfort  
Time TempWeatherWind HumidityBarometerVisibility
8:30 PM
Sat, Apr 18
41 °FPartly sunny.10 mph66%29.80 "HgN/A
8:00 PM41 °FPartly sunny.10 mph66%29.80 "HgN/A
7:30 PM43 °FBroken clouds.13 mph57%29.80 "HgN/A
7:00 PM43 °FBroken clouds.10 mph57%29.80 "HgN/A
6:30 PM43 °FPartly sunny.10 mph71%29.80 "HgN/A
6:00 PM43 °FPartly sunny.10 mph71%29.80 "HgN/A
5:30 PM45 °FPartly sunny.10 mph61%29.77 "HgN/A
5:00 PM45 °FPartly sunny.10 mph61%29.77 "HgN/A
4:30 PM45 °FPartly sunny.8 mph61%29.77 "HgN/A
4:00 PM45 °FPartly sunny.10 mph61%29.77 "HgN/A
3:30 PM43 °FPartly sunny.10 mph66%29.80 "HgN/A
3:00 PM43 °FPartly sunny.10 mph66%29.80 "HgN/A
2:30 PM45 °FPartly sunny.13 mph61%29.80 "HgN/A
2:00 PM45 °FPartly sunny.13 mph61%29.80 "HgN/A
1:30 PM43 °FPartly sunny.10 mph66%29.80 "HgN/A
1:00 PM43 °FPartly sunny.13 mph66%29.80 "HgN/A
12:30 PM41 °FPartly sunny.13 mph76%29.80 "HgN/A
12:00 PM41 °FOvercast.10 mph76%29.80 "HgN/A
11:30 AM39 °FMostly cloudy.10 mph87%29.77 "HgN/A
11:00 AM39 °FOvercast.8 mph87%29.77 "HgN/A
10:30 AM39 °FPartly sunny.8 mph81%29.77 "HgN/A
10:00 AM39 °FLight rain. Partly sunny.6 mph81%29.77 "HgN/A
9:30 AM37 °FPartly sunny.6 mph87%29.77 "HgN/A
9:00 AM37 °FPartly sunny.6 mph87%29.77 "HgN/A
8:30 AM37 °FOvercast.8 mph87%29.77 "HgN/A
8:00 AM37 °FOvercast.6 mph87%29.77 "HgN/A
7:30 AM36 °FOvercast.6 mph93%29.77 "HgN/A
7:00 AM36 °FPassing clouds.6 mph93%29.77 "HgN/A
Weather by CustomWeather, © 2015

See weather overviewHow to use our weather pages